This demonstration page uses our WeatherBlox Daily Observations layout. Learn more.

Left ArrowRight Arrow

53.62937, 11.41316

Hourly Observations for May 15, 2019

Temp ( °F °C ) Dew Point ( °F °C ) Humidity (%) Winds ( mph kmh ) Pressure ( in mb ) Visibility ( mi km ) Precip ( " mm )
6:50 am 06:50 Mostly Sunny 39 4 36 2 87 87 WSW 2 4 30.42 1030 7 11 N/A
7:20 am 07:20 Mostly Sunny 45 7 37 3 76 76 VRB 1 2 30.42 1030 7 11 N/A
7:50 am 07:50 Mostly Sunny 48 9 36 2 62 62 VRB 1 2 30.42 1030 7 11 N/A
8:20 am 08:20 Mostly Sunny 52 11 36 2 54 54 VRB 3 6 30.42 1030 7 11 N/A
8:50 am 08:50 Mostly Sunny 54 12 34 1 47 47 VRB 3 6 30.42 1030 7 11 N/A
9:20 am 09:20 Mostly Sunny 54 12 32 undefined 44 44 NNE 10 17 30.42 1030 7 11 N/A
9:50 am 09:50 Mostly Sunny 55 13 36 2 47 47 N 12 19 30.39 1029 7 11 N/A
10:20 am 10:20 Mostly Sunny 55 13 36 2 47 47 NE 14 22 30.39 1029 7 11 N/A
10:50 am 10:50 Mostly Sunny 57 14 34 1 41 41 NNE 14 22 30.39 1029 30 48 N/A
11:20 am 11:20 Mostly Sunny 59 15 34 1 39 39 NNE 10 17 30.39 1029 7 11 N/A
11:50 am 11:50 Mostly Sunny 59 15 34 1 39 39 NE 12 19 30.39 1029 7 11 N/A
12:20 pm 12:20 Mostly Sunny 59 15 34 1 39 39 N 15 24 30.36 1028 7 11 N/A
12:50 pm 12:50 Mostly Sunny 57 14 32 undefined 39 39 NE 14 22 30.36 1028 7 11 N/A
1:20 pm 13:20 Mostly Sunny 59 15 28 -2 31 31 NE 17 28 30.36 1028 7 11 N/A
1:50 pm 13:50 Mostly Sunny 59 15 32 undefined 36 36 NNE 16 26 30.36 1028 7 11 N/A
2:20 pm 14:20 Mostly Sunny 59 15 34 1 39 39 NE 15 24 30.36 1028 7 11 N/A
2:50 pm 14:50 Mostly Sunny 59 15 30 -1 34 34 NNE 17 28 30.33 1027 7 11 N/A
3:20 pm 15:20 Mostly Sunny 59 15 34 1 39 39 N 16 26 30.33 1027 7 11 N/A
3:50 pm 15:50 Mostly Sunny 57 14 34 1 41 41 NE 15 24 30.33 1027 7 11 N/A
4:20 pm 16:20 Mostly Sunny 57 14 30 -1 36 36 NE 15 24 30.33 1027 7 11 N/A
4:50 pm 16:50 Mostly Sunny 55 13 28 -2 36 36 NE 20 31 30.33 1027 7 11 N/A
5:20 pm 17:20 Mostly Sunny 55 13 27 -3 33 33 NE 18 30 30.33 1027 7 11 N/A
5:50 pm 17:50 Mostly Sunny 55 13 25 -4 31 31 NE 20 31 30.33 1027 7 11 N/A
6:20 pm 18:20 Mostly Sunny 55 13 23 -5 28 28 NE 18 30 30.30 1026 7 11 N/A
6:50 pm 18:50 Mostly Sunny 54 12 27 -3 35 35 NE 16 26 30.30 1026 7 11 N/A
7:20 pm 19:20 Mostly Sunny 52 11 25 -4 35 35 NE 14 22 30.30 1026 7 11 N/A
7:50 pm 19:50 Mostly Sunny 52 11 28 -2 41 41 NE 9 15 30.30 1026 7 11 N/A
8:20 pm 20:20 Mostly Sunny 52 11 32 undefined 47 47 NE 9 15 30.30 1026 7 11 N/A
8:50 pm 20:50 Mostly Sunny 50 10 32 undefined 50 50 NE 10 17 30.30 1026 7 11 N/A

Powered by AerisWeather